Location: Clanezzo
(45.7500°N, 9.6000°E)
Time: 10:59:00
(UTC+00:00)

CAS-4A - Pass Details

Date: 10 July 2022
Orbit: 521 x 536 km, 43.0° (Epoch: 18 August)

Event Time Altitude Azimuth Distance (km) Brightness Sun altitude
Exits shadow 01:47:17 22° 251° (WSW) 1,187 ? -14.9°
Maximum altitude 01:49:16 35° 200° (SSW) 852 ? -14.7°
Drops below altitude 10° 01:52:56 10° 133° (SE) 1,755 ? -14.4°
Sets 01:55:17 0° 125° (SE) 2,644 ? -14.1°
